• In Uzbekistan
  • List of Countries
  • For 7 days
  • Water Temperature
  • Satellite Maps
  • Weather Map
  • Weather Widgets
  • user-avatar
    Login

    Hourly Weather Adelaide

    Today, 23 January, Monday

    Time Temperature Precipitation Wind Pressure Humidity
    00:00 +27°C° 0 mm 2 mps 750 mmHg 34%
    01:00 +27°C° 0 mm 2 mps 750 mmHg 34%
    02:00 +27°C° 0 mm 2 mps 750 mmHg 33%
    03:00 +26°C° 0 mm 2 mps 749 mmHg 31%
    04:00 +26°C° 0 mm 2 mps 749 mmHg 30%
    05:00 +27°C° 0 mm 2 mps 749 mmHg 30%
    06:00 +27°C° 0 mm 2 mps 749 mmHg 29%
    07:00 +29°C° 0.2 mm 3 mps 749 mmHg 30%
    08:00 +33°C° 0.2 mm 3 mps 749 mmHg 32%
    09:00 +34°C° 0 mm 2 mps 750 mmHg 32%
    10:00 +35°C° 0.3 mm 3 mps 749 mmHg 35%
    11:00 +35°C° 0.3 mm 3 mps 749 mmHg 37%
    12:00 +36°C° 0.3 mm 4 mps 749 mmHg 40%
    13:00 +34°C° 1.3 mm 4 mps 749 mmHg 51%
    14:00 +30°C° 1.3 mm 4 mps 749 mmHg 61%
    15:00 +26°C° 0 mm 2 mps 749 mmHg 76%
    16:00 +26°C° 1 mm 2 mps 750 mmHg 79%
    17:00 +26°C° 1 mm 2 mps 750 mmHg 82%
    18:00 +26°C° 1 mm 2 mps 751 mmHg 85%
    19:00 +25°C° 0 mm 3 mps 751 mmHg 85%
    20:00 +25°C° 0 mm 4 mps 752 mmHg 85%
    21:00 +23°C° 0 mm 5 mps 752 mmHg 85%
    22:00 +22°C° 0 mm 5 mps 753 mmHg 84%
    23:00 +22°C° 0 mm 5 mps 753 mmHg 84%

    Tomorrow, 24 January, Tuesday

    Time Temperature Precipitation Wind Pressure Humidity
    00:00 +21°C° 0 mm 5 mps 754 mmHg 84%
    01:00 +20°C° 0 mm 5 mps 754 mmHg 83%
    02:00 +20°C° 0 mm 5 mps 755 mmHg 81%
    03:00 +19°C° 0 mm 4 mps 755 mmHg 80%
    04:00 +19°C° 0 mm 4 mps 756 mmHg 78%
    05:00 +19°C° 0 mm 5 mps 757 mmHg 75%
    06:00 +19°C° 0 mm 5 mps 757 mmHg 73%
    07:00 +19°C° 0 mm 5 mps 758 mmHg 67%
    08:00 +20°C° 0 mm 5 mps 758 mmHg 61%
    09:00 +21°C° 0 mm 5 mps 759 mmHg 56%
    10:00 +22°C° 0 mm 5 mps 759 mmHg 52%
    11:00 +23°C° 0 mm 5 mps 759 mmHg 49%
    12:00 +25°C° 0 mm 5 mps 759 mmHg 46%
    13:00 +25°C° 0 mm 5 mps 759 mmHg 46%
    14:00 +25°C° 0 mm 5 mps 759 mmHg 45%
    15:00 +25°C° 0 mm 5 mps 759 mmHg 45%
    16:00 +23°C° 0 mm 5 mps 759 mmHg 48%
    17:00 +22°C° 0 mm 5 mps 759 mmHg 52%
    18:00 +21°C° 0 mm 5 mps 760 mmHg 55%
    19:00 +19°C° 0 mm 5 mps 760 mmHg 60%
    20:00 +18°C° 0 mm 4 mps 761 mmHg 64%
    21:00 +17°C° 0 mm 4 mps 761 mmHg 68%
    22:00 +17°C° 0 mm 4 mps 761 mmHg 70%
    23:00 +15°C° 0 mm 4 mps 761 mmHg 71%

    Day after tomorrow, 25 January, Wednesday

    Time Temperature Precipitation Wind Pressure Humidity
    00:00 +16°C° 0 mm 3 mps 761 mmHg 73%
    01:00 +16°C° 0 mm 3 mps 761 mmHg 75%
    02:00 +16°C° 0 mm 3 mps 760 mmHg 76%
    03:00 +14°C° 0 mm 3 mps 760 mmHg 78%
    04:00 +16°C° 0 mm 3 mps 761 mmHg 77%
    05:00 +16°C° 0 mm 3 mps 761 mmHg 75%
    06:00 +16°C° 0 mm 3 mps 761 mmHg 74%
    07:00 +18°C° 0 mm 3 mps 761 mmHg 64%
    08:00 +20°C° 0 mm 2 mps 761 mmHg 55%
    09:00 +24°C° 0 mm 2 mps 761 mmHg 45%
    10:00 +25°C° 0 mm 2 mps 761 mmHg 41%
    11:00 +27°C° 0 mm 3 mps 761 mmHg 37%
    12:00 +28°C° 0 mm 3 mps 760 mmHg 32%
    13:00 +28°C° 0 mm 4 mps 760 mmHg 34%
    14:00 +28°C° 0 mm 4 mps 760 mmHg 35%
    15:00 +28°C° 0 mm 5 mps 759 mmHg 37%
    16:00 +26°C° 0 mm 5 mps 759 mmHg 41%
    17:00 +25°C° 0 mm 5 mps 759 mmHg 45%
    18:00 +22°C° 0 mm 5 mps 760 mmHg 50%
    19:00 +21°C° 0 mm 5 mps 760 mmHg 56%
    20:00 +19°C° 0 mm 4 mps 761 mmHg 62%
    21:00 +18°C° 0 mm 4 mps 761 mmHg 68%
    22:00 +18°C° 0 mm 4 mps 761 mmHg 71%
    23:00 +17°C° 0 mm 4 mps 761 mmHg 74%

    26 January, Thursday

    Time Temperature Precipitation Wind Pressure Humidity
    00:00 +17°C° 0 mm 4 mps 761 mmHg 78%
    01:00 +16°C° 0 mm 3 mps 760 mmHg 80%
    02:00 +16°C° 0 mm 3 mps 760 mmHg 83%
    03:00 +16°C° 0 mm 3 mps 760 mmHg 85%
    04:00 +16°C° 0 mm 3 mps 760 mmHg 85%
    05:00 +16°C° 0 mm 3 mps 761 mmHg 84%
    06:00 +17°C° 0 mm 3 mps 761 mmHg 83%
    07:00 +19°C° 0 mm 3 mps 761 mmHg 73%
    08:00 +21°C° 0 mm 3 mps 761 mmHg 62%
    09:00 +24°C° 0 mm 3 mps 761 mmHg 52%
    10:00 +26°C° 0 mm 3 mps 761 mmHg 48%
    11:00 +27°C° 0 mm 3 mps 760 mmHg 43%
    12:00 +29°C° 0 mm 3 mps 760 mmHg 39%
    13:00 +29°C° 0 mm 4 mps 759 mmHg 40%
    14:00 +29°C° 0 mm 4 mps 759 mmHg 41%
    15:00 +29°C° 0 mm 5 mps 758 mmHg 42%
    16:00 +28°C° 0 mm 5 mps 758 mmHg 46%
    17:00 +26°C° 0 mm 5 mps 758 mmHg 50%
    18:00 +25°C° 0 mm 4 mps 758 mmHg 54%
    19:00 +22°C° 0 mm 4 mps 759 mmHg 60%
    20:00 +21°C° 0 mm 4 mps 759 mmHg 65%
    21:00 +19°C° 0 mm 4 mps 759 mmHg 70%
    22:00 +18°C° 0 mm 4 mps 759 mmHg 72%
    23:00 +18°C° 0 mm 4 mps 759 mmHg 74%

    27 January, Friday

    Time Temperature Precipitation Wind Pressure Humidity
    00:00 +17°C° 0 mm 3 mps 758 mmHg 76%
    01:00 +17°C° 0 mm 3 mps 758 mmHg 77%
    02:00 +17°C° 0 mm 3 mps 758 mmHg 79%
    03:00 +16°C° 0 mm 3 mps 757 mmHg 81%
    04:00 +17°C° 0 mm 2 mps 757 mmHg 78%
    05:00 +17°C° 0 mm 2 mps 758 mmHg 76%
    06:00 +17°C° 0 mm 2 mps 758 mmHg 74%
    07:00 +21°C° 0 mm 2 mps 758 mmHg 61%
    08:00 +25°C° 0 mm 1 mps 758 mmHg 48%
    09:00 +28°C° 0 mm 1 mps 758 mmHg 34%
    10:00 +30°C° 0 mm 1 mps 757 mmHg 31%
    11:00 +32°C° 0 mm 1 mps 757 mmHg 27%
    12:00 +35°C° 0 mm 2 mps 756 mmHg 24%
    13:00 +35°C° 0 mm 2 mps 756 mmHg 24%
    14:00 +35°C° 0 mm 3 mps 755 mmHg 24%
    15:00 +34°C° 0 mm 3 mps 754 mmHg 24%
    16:00 +33°C° 0 mm 3 mps 754 mmHg 27%
    17:00 +30°C° 0 mm 3 mps 754 mmHg 30%
    18:00 +29°C° 0 mm 3 mps 754 mmHg 33%
    19:00 +27°C° 0 mm 3 mps 755 mmHg 39%
    20:00 +25°C° 0 mm 3 mps 755 mmHg 45%
    21:00 +22°C° 0 mm 3 mps 755 mmHg 51%
    22:00 +21°C° 0 mm 3 mps 755 mmHg 52%
    23:00 +21°C° 0 mm 2 mps 755 mmHg 53%

    28 January, Saturday

    Time Temperature Precipitation Wind Pressure Humidity
    00:00 +20°C° 0 mm 2 mps 755 mmHg 54%
    01:00 +19°C° 0 mm 2 mps 755 mmHg 55%
    02:00 +19°C° 0 mm 2 mps 755 mmHg 55%
    03:00 +19°C° 0 mm 1 mps 755 mmHg 55%
    04:00 +20°C° 0 mm 1 mps 756 mmHg 53%
    05:00 +20°C° 0 mm 1 mps 756 mmHg 51%
    06:00 +21°C° 0 mm 1 mps 757 mmHg 49%
    07:00 +24°C° 0 mm 1 mps 757 mmHg 41%
    08:00 +27°C° 0 mm 2 mps 757 mmHg 34%
    09:00 +29°C° 0 mm 2 mps 758 mmHg 27%
    10:00 +31°C° 0 mm 2 mps 757 mmHg 25%
    11:00 +33°C° 0 mm 3 mps 757 mmHg 23%
    12:00 +35°C° 0 mm 3 mps 757 mmHg 21%
    13:00 +34°C° 0 mm 3 mps 757 mmHg 22%
    14:00 +34°C° 0 mm 4 mps 756 mmHg 23%
    15:00 +34°C° 0 mm 4 mps 756 mmHg 24%
    16:00 +32°C° 0 mm 4 mps 756 mmHg 29%
    17:00 +30°C° 0 mm 4 mps 757 mmHg 33%
    18:00 +28°C° 0 mm 4 mps 757 mmHg 38%
    19:00 +26°C° 0 mm 4 mps 757 mmHg 45%
    20:00 +24°C° 0 mm 3 mps 758 mmHg 53%
    21:00 +21°C° 0 mm 3 mps 758 mmHg 61%
    22:00 +21°C° 0 mm 3 mps 758 mmHg 64%
    23:00 +20°C° 0 mm 3 mps 758 mmHg 68%
    Show more